Date String (YYYY-MM-DD hh:mm:ss) UTC,Instrument flags,Ambient pressure (hPa),Sample flow (lpm),Bypass flow (lpm),Sample temperature (°C),Ambient temperature (°C),ASC tube jacket temperature (°C),LED temperature (°C),Box temperature (°C),Sample RH (%),Span deviation,Mass concentration (μg/m³),Mass concentration (μg/m³),Mass concentration (μg/m³)
DateTimeUTC,F1_M11,P_M11,Q1_M11,Q2_M11,T1_M11,T2_M11,T3_M11,T4_M11,T5_M11,U1_M11,ZSPAN_M11,X0_M11,X2_M11,X1_M11
2022-10-07 08:00:00,,0837.2,5.01,0.00,29.8,28.1,00.0,38.6,31.6,22.1,0000.3,0030.76,0020.61,0017.96
2022-10-07 08:01:00,,0837.2,4.99,0.00,29.8,28.1,00.0,38.6,31.6,22.1,0000.1,0031.18,0020.67,0017.99
2022-10-07 08:02:00,,0837.3,5.01,0.00,29.8,28.1,00.0,38.6,31.6,22.1,-000.2,0031.26,0020.70,0017.99
2022-10-07 08:03:00,,0837.3,5.01,0.00,29.8,28.1,00.0,38.6,31.5,22.1,-000.5,0031.40,0020.65,0017.99
2022-10-07 08:04:00,,0837.3,5.00,0.00,29.8,28.0,00.0,38.6,31.5,22.1,-000.7,0031.93,0020.65,0017.98
2022-10-07 08:05:00,,0837.3,5.01,0.00,29.8,28.0,00.0,38.6,31.5,22.1,-000.8,0032.33,0020.71,0017.99
2022-10-07 08:06:00,,0837.3,5.01,0.00,29.7,27.9,00.0,38.5,31.5,22.0,-001.1,0032.72,0020.74,0017.97
2022-10-07 08:07:00,,0837.3,4.99,0.00,29.7,27.9,00.0,38.5,31.5,22.1,-001.1,0032.38,0020.73,0017.96
2022-10-07 08:08:00,,0837.3,5.01,0.00,29.7,27.9,00.0,38.5,31.5,22.1,-000.7,0032.13,0020.65,0017.92
2022-10-07 08:09:00,,0837.3,5.00,0.00,29.7,27.9,00.0,38.5,31.5,22.1,-000.7,0031.94,0020.67,0017.91
2022-10-07 08:10:00,,0837.3,5.00,0.00,29.7,27.9,00.0,38.5,31.5,22.0,-000.4,0032.68,0020.73,0017.88
2022-10-07 08:11:00,,0837.3,5.00,0.00,29.7,27.8,00.0,38.5,31.5,22.0,-000.3,0032.98,0020.70,0017.84
2022-10-07 08:12:00,,0837.3,5.01,0.00,29.7,27.8,00.0,38.5,31.4,22.0,-000.1,0033.89,0020.69,0017.80
2022-10-07 08:13:00,,0837.3,4.99,0.00,29.7,27.8,00.0,38.5,31.4,22.0,-000.0,0033.89,0020.64,0017.77
2022-10-07 08:14:00,,0837.3,5.01,0.00,29.6,27.7,00.0,38.5,31.4,22.0,-000.1,0034.63,0020.64,0017.74
2022-10-07 08:15:00,,0837.2,5.00,0.00,29.6,27.7,00.0,38.5,31.4,22.0,0000.1,0036.40,0020.67,0017.72
2022-10-07 08:16:00,,0837.3,4.98,0.00,29.6,27.7,00.0,38.4,31.4,22.0,0000.1,0036.38,0020.63,0017.69
2022-10-07 08:17:00,,0837.3,5.00,0.00,29.6,27.7,00.0,38.4,31.4,22.0,0000.3,0036.17,0020.49,0017.66
2022-10-07 08:18:00,,0837.3,5.02,0.00,29.6,27.7,00.0,38.4,31.4,22.0,0000.2,0036.60,0020.38,0017.63
2022-10-07 08:19:00,,0837.3,5.00,0.00,29.6,27.8,00.0,38.4,31.3,22.0,0000.3,0037.24,0020.32,0017.61
2022-10-07 08:20:00,,0837.3,4.99,0.00,29.6,27.8,00.0,38.4,31.4,22.0,0000.1,0038.93,0020.26,0017.56
2022-10-07 08:21:00,,0837.3,5.00,0.00,29.6,27.8,00.0,38.4,31.3,22.0,-000.0,0039.13,0020.25,0017.53
2022-10-07 08:22:00,,0837.3,4.99,0.00,29.6,27.8,00.0,38.4,31.3,22.0,-000.4,0039.60,0020.32,0017.53
2022-10-07 08:23:00,,0837.3,5.01,0.00,29.5,27.8,00.0,38.4,31.3,22.0,-000.6,0039.50,0020.30,0017.53
2022-10-07 08:24:00,,0837.3,5.01,0.00,29.5,27.8,00.0,38.4,31.3,22.0,-000.6,0039.62,0020.28,0017.52
2022-10-07 08:25:00,,0837.3,4.99,0.00,29.5,27.8,00.0,38.3,31.3,21.9,-000.6,0039.34,0020.30,0017.54
2022-10-07 08:26:00,,0837.3,5.01,0.00,29.5,27.8,00.0,38.3,31.3,22.0,-001.1,0037.30,0020.33,0017.53
2022-10-07 08:27:00,,0837.3,4.99,0.00,29.5,27.8,00.0,38.3,31.3,22.0,-001.1,0037.38,0020.28,0017.52
2022-10-07 08:28:00,,0837.3,5.01,0.00,29.5,27.8,00.0,38.3,31.3,21.9,-001.4,0038.04,0020.29,0017.51
2022-10-07 08:29:00,,0837.3,4.99,0.00,29.5,27.8,00.0,38.3,31.3,21.9,-001.3,0037.63,0020.44,0017.52
2022-10-07 08:30:00,,0837.3,5.01,0.00,29.5,27.8,00.0,38.3,31.3,21.9,-001.3,0037.30,0020.50,0017.53
2022-10-07 08:31:00,,0837.3,4.99,0.00,29.5,27.8,00.0,38.3,31.3,21.9,-001.4,0036.10,0020.54,0017.56
2022-10-07 08:32:00,,0837.3,4.99,0.00,29.5,27.8,00.0,38.3,31.3,21.9,-001.7,0035.61,0020.63,0017.60
2022-10-07 08:33:00,,0837.3,5.02,0.00,29.5,27.8,00.0,38.3,31.3,21.9,-001.7,0034.72,0020.63,0017.61
2022-10-07 08:34:00,,0837.3,4.99,0.00,29.5,27.8,00.0,38.3,31.3,21.9,-002.0,0033.86,0020.65,0017.63
2022-10-07 08:35:00,,0837.3,5.00,0.00,29.5,27.8,00.0,38.3,31.3,21.9,-001.9,0033.59,0020.81,0017.72
2022-10-07 08:36:00,,0837.3,5.01,0.00,29.5,27.8,00.0,38.3,31.3,21.9,-002.1,0033.82,0020.92,0017.82
2022-10-07 08:37:00,,0837.3,4.99,0.00,29.5,27.9,00.0,38.3,31.3,21.9,-001.8,0034.65,0020.97,0017.91
2022-10-07 08:38:00,,0837.3,5.01,0.00,29.5,27.9,00.0,38.3,31.3,21.8,-001.8,0034.49,0021.02,0017.98
2022-10-07 08:39:00,,0837.3,4.99,0.00,29.5,27.9,00.0,38.3,31.3,21.8,-001.9,0034.24,0021.14,0018.05
2022-10-07 08:40:00,,0837.3,5.00,0.00,29.5,27.9,00.0,38.3,31.3,21.8,-002.0,0034.10,0021.23,0018.15
2022-10-07 08:41:00,,0837.3,4.99,0.00,29.5,27.9,00.0,38.2,31.3,21.8,-002.4,0034.36,0021.34,0018.23
2022-10-07 08:42:00,,0837.3,5.00,0.00,29.5,27.9,00.0,38.2,31.3,21.8,-002.4,0034.53,0021.44,0018.32
2022-10-07 08:43:00,,0837.3,4.99,0.00,29.5,27.8,00.0,38.2,31.3,21.8,-002.4,0034.54,0021.42,0018.37
2022-10-07 08:44:00,,0837.3,5.01,0.00,29.5,27.8,00.0,38.2,31.3,21.8,-002.3,0034.70,0021.40,0018.45
2022-10-07 08:45:00,,0837.3,5.00,0.00,29.5,27.8,00.0,38.2,31.3,21.8,-002.0,0035.58,0021.50,0018.51
2022-10-07 08:46:00,,0837.3,4.99,0.00,29.5,27.8,00.0,38.2,31.3,21.8,-002.0,0035.81,0021.50,0018.53
2022-10-07 08:47:00,,0837.3,5.00,0.00,29.4,27.8,00.0,38.2,31.3,21.8,-001.8,0035.66,0021.50,0018.51
2022-10-07 08:48:00,,0837.3,5.00,0.00,29.4,27.8,00.0,38.2,31.2,21.8,-001.7,0035.79,0021.48,0018.52
2022-10-07 08:49:00,,0837.3,4.99,0.00,29.4,27.8,00.0,38.2,31.2,21.8,-001.6,0035.59,0021.47,0018.52
2022-10-07 08:50:00,,0837.3,5.01,0.00,29.4,27.8,00.0,38.2,31.2,21.8,-001.5,0035.64,0021.54,0018.54
2022-10-07 08:51:00,,0837.2,5.00,0.00,29.4,27.8,00.0,38.2,31.2,21.8,-001.3,0035.37,0021.50,0018.53
2022-10-07 08:52:00,,0837.3,5.01,0.00,29.4,27.8,00.0,38.2,31.2,21.8,-000.9,0035.58,0021.49,0018.54
2022-10-07 08:53:00,,0837.3,4.99,0.00,29.4,27.8,00.0,38.2,31.2,21.8,-000.8,0036.48,0021.54,0018.54
2022-10-07 08:54:00,,0837.3,5.01,0.00,29.4,27.8,00.0,38.2,31.2,21.8,-000.6,0036.64,0021.57,0018.56
2022-10-07 08:55:00,,0837.3,4.99,0.00,29.4,27.7,00.0,38.2,31.2,21.8,-000.5,0036.42,0021.61,0018.57
2022-10-07 08:56:00,,0837.3,4.99,0.00,29.4,27.8,00.0,38.2,31.2,21.9,-000.5,0035.50,0021.50,0018.52
2022-10-07 08:57:00,,0837.3,5.00,0.00,29.4,27.8,00.0,38.2,31.2,21.9,-000.5,0036.96,0021.46,0018.50
2022-10-07 08:58:00,,0837.3,4.99,0.00,29.4,27.7,00.0,38.2,31.2,21.9,-000.6,0038.60,0021.47,0018.50
2022-10-07 08:59:00,,0837.3,5.02,0.00,29.4,27.7,00.0,38.2,31.2,22.0,-000.7,0038.03,0021.54,0018.52
